Terug naar catalogus

CZ-4 DEB

ActiefSSO
NORAD 26454·DEBRIS·🇨🇳 China

Gelanceerd Oct 14, 1999 vanaf Taiyuan Satellite Launch Center

Loading…

Volgende Passages (komende 24 uur)

TLE

VersSource: Space-Track

Epoch: Sep 14, 2026, 03:28 UTC

1 26454U 99057KZ  26257.14506190  .00003922  00000-0  56880-3 0  9995
2 26454  98.3141 327.5347 0052089 179.7970 210.7169 14.75724997384730

Volg CZ-4 DEB in realtime met AllMySat

Download on the App Store